20040330,000023,604812,33.849030,-118.463650,NaN,16.670,33.132,42.437,1911.12,0.0, NaN,16.838,16.799, NaN,24.158,   NaN,19.36,1012.16,77.15,19.20,347.9,344.5,5.4,5.5,270.1,273.2,1.3,1.6,NaN, NaN,NaN,1.2,NaN,1080604825,NaN,NaN,10.2,000024,   NaN,0.9,33.848930,-118.463670,0.43,NaN,NaN,16.674, NaN,NaN,NaN, NaN, NaN
20040330,000053,604843,33.850450,-118.463570,NaN,16.724,33.132,42.489,1953.97,0.0, NaN,16.763,16.711, NaN,24.146,   NaN,19.35,1012.18,77.23,19.20,350.0,346.6,5.1,5.4,259.5,272.4,1.1,1.4,NaN, NaN,NaN,1.0,NaN,1080604855,NaN,NaN,10.3,000054,   NaN,1.2,33.850340,-118.463600,0.58,NaN,NaN,16.728, NaN,NaN,NaN, NaN, NaN
20040330,000123,604873,33.851860,-118.463520,NaN,16.754,33.131,42.515,1987.67,0.0, NaN,16.675,16.623, NaN,24.138,   NaN,19.33,1012.22,77.29,19.16,351.8,349.2,4.9,5.4,243.8,275.4,1.0,1.1,NaN, NaN,NaN,356.2,NaN,1080604885,NaN,NaN,10.3,000084,   NaN,359.2,33.851750,-118.463540,0.46,NaN,NaN,16.758, NaN,NaN,NaN, NaN, NaN
20040330,000154,604903,33.853280,-118.463510,NaN,16.757,33.130,42.517,1990.98,0.0, NaN,16.585,16.528, NaN,24.136,   NaN,19.29,1012.21,77.43,19.12,352.9,350.7,4.8,5.5,232.7,280.6,0.9,1.0,NaN, NaN,NaN,357.4,NaN,1080604915,NaN,NaN,10.1,000114,   NaN,0.7,33.853180,-118.463530,0.29,NaN,NaN,16.761, NaN,NaN,NaN, NaN, NaN
20040330,000223,604933,33.854710,-118.463470,NaN,16.762,33.131,42.523,1992.02,0.0, NaN,16.492,16.434, NaN,24.136,   NaN,19.25,1012.18,77.57,19.12,352.4,349.9,4.8,5.5,232.4,279.8,0.9,1.1,NaN, NaN,NaN,353.2,NaN,1080604945,NaN,NaN,10.2,000144,   NaN,0.9,33.854600,-118.463480,0.43,NaN,NaN,16.766, NaN,NaN,NaN, NaN, NaN
20040330,000253,604963,33.856120,-118.463410,NaN,16.763,33.130,42.523,1992.67,0.0, NaN,16.421,16.364, NaN,24.135,   NaN,19.23,1012.18,77.55,19.08,350.6,347.4,4.9,5.3,244.6,271.1,1.0,1.3,NaN, NaN,NaN,355.2,NaN,1080604975,NaN,NaN,10.1,000174,   NaN,1.6,33.856020,-118.463430,0.41,NaN,NaN,16.767, NaN,NaN,NaN, NaN, NaN
20040330,000323,604992,33.857540,-118.463340,NaN,16.743,33.130,42.504,1992.62,0.0, NaN,16.381,16.325, NaN,24.139,   NaN,19.21,1012.16,77.35,19.04,347.9,344.1,5.1,5.3,255.2,267.0,1.3,1.6,NaN, NaN,NaN,357.9,NaN,1080605005,NaN,NaN,10.2,000204,   NaN,0.7,33.857440,-118.463370,0.32,NaN,NaN,16.747, NaN,NaN,NaN, NaN, NaN
20040330,000354,605024,33.858970,-118.463290,NaN,16.733,33.119,42.483,1992.80,0.0, NaN,16.356,16.304, NaN,24.134,   NaN,19.21,1012.17,77.12,19.03,343.8,339.6,5.1,5.2,257.4,259.6,1.6,2.0,NaN, NaN,NaN,3.2,NaN,1080605035,NaN,NaN,10.4,000234,   NaN,0.6,33.858870,-118.463310,0.33,NaN,NaN,16.737, NaN,NaN,NaN, NaN, NaN
20040330,000424,605054,33.860440,-118.463240,NaN,16.721,33.129,42.482,1988.61,0.0, NaN,16.384,16.341, NaN,24.144,   NaN,19.22,1012.16,76.90,19.03,339.6,336.0,5.2,5.2,258.1,255.9,2.0,2.3,NaN, NaN,NaN,1.2,NaN,1080605066,NaN,NaN,10.2,000265,   NaN,359.1,33.860350,-118.463260,0.43,NaN,NaN,16.725, NaN,NaN,NaN, NaN, NaN
20040330,000453,605083,33.861830,-118.463230,NaN,16.666,33.129,42.429,1984.52,0.0, NaN,16.470,16.434, NaN,24.156,   NaN,19.23,1012.16,76.56,19.00,338.8,334.7,5.2,5.1,258.0,253.5,2.1,2.4,NaN, NaN,NaN,5.2,NaN,1080605095,NaN,NaN,10.3,000294,   NaN,1.1,33.861720,-118.463250,0.51,NaN,NaN,16.670, NaN,NaN,NaN, NaN, NaN
20040330,000523,605113,33.863250,-118.463170,NaN,16.635,33.130,42.401,1980.29,0.0, NaN,16.566,16.533, NaN,24.164,   NaN,19.23,1012.15,76.37,19.01,339.5,335.1,5.2,5.1,257.8,253.4,2.0,2.3,NaN, NaN,NaN,3.7,NaN,1080605125,NaN,NaN,10.3,000324,   NaN,0.2,33.863140,-118.463200,0.42,NaN,NaN,16.639, NaN,NaN,NaN, NaN, NaN
20040330,000553,605143,33.864660,-118.463140,NaN,16.645,33.130,42.411,1973.69,0.0, NaN,16.756,16.737, NaN,24.163,   NaN,19.24,1012.16,76.30,19.03,340.4,336.5,5.1,5.1,257.7,253.8,1.9,2.2,NaN, NaN,NaN,3.8,NaN,1080605155,NaN,NaN,10.2,000354,   NaN,1.4,33.864560,-118.463160,0.35,NaN,NaN,16.649, NaN,NaN,NaN, NaN, NaN
20040330,000625,605175,33.866140,-118.463060,NaN,16.668,33.131,42.434,1966.30,0.0, NaN,16.867,16.834, NaN,24.158,   NaN,19.23,1012.13,76.16,19.03,341.4,337.2,5.2,5.0,258.5,253.8,1.8,2.2,NaN, NaN,NaN,0.2,NaN,1080605186,NaN,NaN,10.3,000385,   NaN,0.1,33.866030,-118.463090,0.27,NaN,NaN,16.672, NaN,NaN,NaN, NaN, NaN
20040330,000653,605203,33.867520,-118.463050,NaN,16.689,33.130,42.453,1956.70,0.0, NaN,16.820,16.773, NaN,24.152,   NaN,19.21,1012.14,75.91,19.02,339.9,336.3,5.1,5.0,255.7,250.7,1.9,2.2,NaN, NaN,NaN,7.0,NaN,1080605215,NaN,NaN,10.3,000414,   NaN,0.1,33.867410,-118.463070,0.43,NaN,NaN,16.693, NaN,NaN,NaN, NaN, NaN
20040330,000725,605235,33.869000,-118.463000,NaN,16.686,33.131,42.451,1946.01,0.0, NaN,16.800,16.758, NaN,24.154,   NaN,19.18,1012.12,75.79,19.02,337.9,334.0,5.0,4.9,251.3,248.0,2.1,2.4,NaN, NaN,NaN,2.4,NaN,1080605246,NaN,NaN,10.3,000445,   NaN,0.7,33.868900,-118.463010,0.16,NaN,NaN,16.690, NaN,NaN,NaN, NaN, NaN
20040330,000755,605265,33.870430,-118.462930,NaN,16.704,33.132,42.468,1940.16,0.0, NaN,16.813,16.774, NaN,24.150,   NaN,19.18,1012.14,75.60,18.99,338.1,333.9,4.8,4.8,247.2,246.5,2.1,2.4,NaN, NaN,NaN,357.3,NaN,1080605276,NaN,NaN,10.2,000475,   NaN,1.6,33.870330,-118.462950,0.57,NaN,NaN,16.708, NaN,NaN,NaN, NaN, NaN
20040330,000825,605295,33.871850,-118.462870,NaN,16.732,33.132,42.496,1938.44,0.0, NaN,16.864,16.831, NaN,24.144,   NaN,19.17,1012.13,75.43,18.99,339.1,334.5,4.8,4.7,246.3,245.5,2.0,2.4,NaN, NaN,NaN,2.4,NaN,1080605306,NaN,NaN,10.2,000505,   NaN,358.1,33.871750,-118.462890,0.59,NaN,NaN,16.736, NaN,NaN,NaN, NaN, NaN
20040330,000855,605324,33.873280,-118.462880,NaN,16.772,33.132,42.534,1934.35,0.0, NaN,16.837,16.793, NaN,24.135,   NaN,19.15,1012.14,75.12,19.01,339.2,335.1,4.8,4.8,247.1,245.8,2.0,2.3,NaN, NaN,NaN,0.9,NaN,1080605336,NaN,NaN,10.1,000535,   NaN,1.4,33.873170,-118.462900,0.14,NaN,NaN,16.776, NaN,NaN,NaN, NaN, NaN
20040330,000925,605355,33.874720,-118.462810,NaN,16.818,33.132,42.578,1926.31,0.0, NaN,16.735,16.682, NaN,24.124,   NaN,19.12,1012.15,74.73,18.96,340.6,335.7,4.9,4.9,249.6,248.2,1.8,2.3,NaN, NaN,NaN,1.1,NaN,1080605366,NaN,NaN,10.4,000565,   NaN,0.6,33.874610,-118.462840,0.37,NaN,NaN,16.822, NaN,NaN,NaN, NaN, NaN
20040330,000955,605385,33.876160,-118.462770,NaN,16.844,33.133,42.603,1923.61,0.0, NaN,16.634,16.580, NaN,24.118,   NaN,19.09,1012.13,74.59,18.94,341.6,336.8,5.0,5.0,250.7,250.2,1.7,2.2,NaN, NaN,NaN,5.2,NaN,1080605396,NaN,NaN,10.4,000595,   NaN,0.8,33.876060,-118.462800,0.35,NaN,NaN,16.848, NaN,NaN,NaN, NaN, NaN
20040330,001025,605415,33.877610,-118.462730,NaN,16.863,33.133,42.621,1921.99,0.0, NaN,16.569,16.519, NaN,24.114,   NaN,19.06,1012.14,74.44,18.93,343.0,338.4,5.0,5.1,250.9,251.9,1.6,2.0,NaN, NaN,NaN,4.2,NaN,1080605426,NaN,NaN,10.7,000625,   NaN,0.1,33.877500,-118.462750,0.48,NaN,NaN,16.867, NaN,NaN,NaN, NaN, NaN
20040330,001054,605444,33.879050,-118.462730,NaN,16.897,33.135,42.656,1914.94,0.0, NaN,16.520,16.470, NaN,24.107,   NaN,19.05,1012.12,74.65,18.92,343.0,338.7,5.0,5.1,249.6,251.6,1.6,2.0,NaN, NaN,NaN,6.4,NaN,1080605456,NaN,NaN,9.7,000655,   NaN,1.2,33.878940,-118.462750,0.19,NaN,NaN,16.901, NaN,NaN,NaN, NaN, NaN
20040330,001124,605474,33.880090,-118.462660,NaN,16.991,33.135,42.745,1921.84,0.0, NaN,16.478,16.427, NaN,24.085,   NaN,19.05,1012.13,74.91,18.91,339.4,334.8,4.4,4.5,248.7,250.2,1.7,2.0,NaN, NaN,NaN,6.1,NaN,1080605485,NaN,NaN,6.3,000684,   NaN,359.2,33.879960,-118.462680,0.12,NaN,NaN,16.995, NaN,NaN,NaN, NaN, NaN
20040330,001155,605505,33.880820,-118.462750,NaN,17.062,33.134,42.812,1913.33,0.0, NaN,16.465,16.418, NaN,24.068,   NaN,19.07,1012.13,75.12,18.93,333.4,326.4,3.3,3.4,246.0,246.6,1.7,2.1,NaN, NaN,NaN,332.8,NaN,1080605516,NaN,NaN,3.9,000715,   NaN,328.9,33.880690,-118.462700,0.77,NaN,NaN,17.066, NaN,NaN,NaN, NaN, NaN
20040330,001225,605535,33.881210,-118.463010,NaN,17.073,33.135,42.823,1964.55,0.0, NaN,16.497,16.455, NaN,24.066,   NaN,19.17,1012.12,75.17,18.95,329.4,320.0,2.6,2.8,242.9,241.0,1.7,2.2,NaN, NaN,NaN,309.8,NaN,1080605546,NaN,NaN,2.0,000745,   NaN,306.2,33.881100,-118.462910,0.63,NaN,NaN,17.077, NaN,NaN,NaN, NaN, NaN
20040330,001255,605565,33.881400,-118.463270,NaN,17.058,33.135,42.808,1972.42,0.0, NaN,16.545,16.509, NaN,24.070,   NaN,19.29,1012.08,75.13,18.99,329.1,319.1,2.2,2.4,238.2,233.4,1.5,2.0,NaN, NaN,NaN,304.7,NaN,1080605576,NaN,NaN,1.6,000775,   NaN,289.4,33.881320,-118.463130,0.46,NaN,NaN,17.062, NaN,NaN,NaN, NaN, NaN
20040330,001325,605595,33.881490,-118.463480,NaN,17.040,33.136,42.793,1972.11,0.0, NaN,16.607,16.573, NaN,24.075,   NaN,19.39,1012.08,74.98,19.07,331.5,322.0,1.9,2.1,236.1,228.6,1.4,1.7,NaN, NaN,NaN,290.5,NaN,1080605606,NaN,NaN,1.3,000805,   NaN,277.8,33.881430,-118.463330,0.37,NaN,NaN,17.044, NaN,NaN,NaN, NaN, NaN
20040330,001355,605625,33.881540,-118.463710,NaN,17.033,33.137,42.787,1970.10,0.0, NaN,16.645,16.608, NaN,24.077,   NaN,19.47,1012.07,74.69,19.10,334.7,326.6,1.8,1.9,235.1,226.5,1.3,1.5,NaN, NaN,NaN,291.0,NaN,1080605636,NaN,NaN,1.6,000835,   NaN,273.2,33.881490,-118.463560,0.18,NaN,NaN,17.037, NaN,NaN,NaN, NaN, NaN
20040330,001425,605654,33.881570,-118.463970,NaN,17.028,33.137,42.782,1966.08,0.0, NaN,16.667,16.631, NaN,24.078,   NaN,19.51,1012.07,74.20,19.18,336.6,329.8,1.9,1.9,234.9,225.2,1.4,1.4,NaN, NaN,NaN,265.9,NaN,1080605666,NaN,NaN,1.8,000865,   NaN,273.4,33.881520,-118.463810,0.12,NaN,NaN,17.032, NaN,NaN,NaN, NaN, NaN
20040330,001455,605685,33.881600,-118.464250,NaN,17.040,33.138,42.794,1963.92,0.0, NaN,16.703,16.669, NaN,24.076,   NaN,19.52,1012.05,73.76,19.21,335.1,328.5,2.0,1.9,231.8,221.9,1.3,1.4,NaN, NaN,NaN,277.2,NaN,1080605696,NaN,NaN,1.7,000895,   NaN,276.4,33.881540,-118.464090,0.08,NaN,NaN,17.044, NaN,NaN,NaN, NaN, NaN
20040330,001525,605715,33.881630,-118.464530,NaN,17.072,33.137,42.824,1952.17,0.0, NaN,16.739,16.706, NaN,24.068,   NaN,19.52,1012.06,73.61,19.25,331.4,323.1,2.0,2.0,228.2,217.3,1.3,1.5,NaN, NaN,NaN,290.2,NaN,1080605726,NaN,NaN,1.8,000925,   NaN,278.9,33.881560,-118.464390,0.06,NaN,NaN,17.076, NaN,NaN,NaN, NaN, NaN
20040330,001555,605745,33.881670,-118.464830,NaN,17.141,33.137,42.890,1945.96,0.0, NaN,16.781,16.750, NaN,24.052,   NaN,19.50,1012.06,73.31,19.28,329.4,320.0,2.1,2.1,226.7,214.1,1.4,1.5,NaN, NaN,NaN,281.7,NaN,1080605756,NaN,NaN,1.8,000955,   NaN,277.4,33.881610,-118.464680,0.09,NaN,NaN,17.145, NaN,NaN,NaN, NaN, NaN
20040330,001624,605774,33.881710,-118.465110,NaN,17.190,33.133,42.932,1939.53,0.0, NaN,16.838,16.810, NaN,24.037,   NaN,19.49,1012.06,73.00,19.30,329.5,320.3,2.1,2.0,225.5,212.4,1.4,1.5,NaN, NaN,NaN,261.9,NaN,1080605785,NaN,NaN,1.9,000984,   NaN,275.1,33.881670,-118.464960,0.12,NaN,NaN,17.194, NaN,NaN,NaN, NaN, NaN
20040330,001654,605804,33.881750,-118.465430,NaN,17.206,33.135,42.949,1935.05,0.0, NaN,16.877,16.847, NaN,24.034,   NaN,19.48,1012.06,72.91,19.32,331.8,321.2,2.0,2.0,223.2,210.6,1.3,1.4,52.2, NaN,NaN,285.7,NaN,1080605816,NaN,NaN,2.0,001015,   NaN,272.3,33.881700,-118.465270,0.09,NaN,NaN,17.210, NaN,NaN,NaN, NaN, NaN
20040330,001725,605835,33.881750,-118.465750,NaN,17.201,33.133,42.942,1909.52,0.0, NaN,16.881,16.848, NaN,24.035,   NaN,19.46,1012.03,72.67,19.33,333.7,324.0,1.9,2.0,222.5,210.3,1.2,1.4,52.4, NaN,NaN,277.2,NaN,1080605846,NaN,NaN,1.9,001045,   NaN,269.6,33.881710,-118.465590,0.11,NaN,NaN,17.205, NaN,NaN,NaN, NaN, NaN
20040330,001755,605865,33.881760,-118.466060,NaN,17.183,33.132,42.924,1907.38,0.0, NaN,16.859,16.819, NaN,24.038,   NaN,19.45,1012.06,72.46,19.32,334.8,325.8,2.0,2.0,224.2,210.5,1.2,1.3,52.4, NaN,NaN,270.4,NaN,1080605876,NaN,NaN,2.1,001075,   NaN,271.2,33.881720,-118.465910,0.05,NaN,NaN,17.187, NaN,NaN,NaN, NaN, NaN
20040330,001825,605895,33.881770,-118.466390,NaN,17.159,33.132,42.901,1898.43,0.0, NaN,16.805,16.759, NaN,24.044,   NaN,19.44,1012.04,72.29,19.31,333.5,324.9,2.0,2.0,222.3,209.8,1.2,1.3,52.9, NaN,NaN,278.2,NaN,1080605906,NaN,NaN,2.4,001105,   NaN,273.2,33.881710,-118.466240,0.01,NaN,NaN,17.163, NaN,NaN,NaN, NaN, NaN
20040330,001855,605925,33.881790,-118.466720,NaN,17.131,33.131,42.874,1902.16,0.0, NaN,16.732,16.682, NaN,24.049,   NaN,19.42,1012.03,72.23,19.32,332.1,322.4,1.9,2.0,220.5,208.7,1.2,1.4,53.1, NaN,NaN,268.6,NaN,1080605936,NaN,NaN,1.7,001135,   NaN,272.4,33.881730,-118.466560,0.04,NaN,NaN,17.135, NaN,NaN,NaN, NaN, NaN
20040330,001925,605955,33.881810,-118.467050,NaN,17.090,33.130,42.834,1864.54,0.0, NaN,16.662,16.611, NaN,24.059,   NaN,19.40,1012.01,72.06,19.32,331.9,322.8,2.0,2.1,220.1,209.4,1.2,1.4,53.6, NaN,NaN,258.8,NaN,1080605966,NaN,NaN,1.8,001165,   NaN,271.1,33.881750,-118.466880,0.11,NaN,NaN,17.094, NaN,NaN,NaN, NaN, NaN
20040330,001955,605984,33.881810,-118.467380,NaN,17.049,33.131,42.795,1862.40,0.0, NaN,16.611,16.559, NaN,24.068,   NaN,19.38,1012.04,71.78,19.31,333.4,325.9,2.1,2.0,223.3,211.3,1.3,1.3,53.4, NaN,NaN,293.1,NaN,1080605996,NaN,NaN,2.0,001195,   NaN,271.8,33.881770,-118.467220,0.07,NaN,NaN,17.053, NaN,NaN,NaN, NaN, NaN
20040330,002025,606015,33.881830,-118.467700,NaN,17.005,33.123,42.744,1854.96,0.0, NaN,16.567,16.518, NaN,24.073,   NaN,19.38,1012.01,71.80,19.30,335.8,327.1,2.1,2.0,227.4,213.2,1.3,1.3,53.7, NaN,NaN,279.8,NaN,1080606026,NaN,NaN,1.5,001225,   NaN,272.1,33.881780,-118.467550,0.06,NaN,NaN,17.009, NaN,NaN,NaN, NaN, NaN
20040330,002055,606045,33.881840,-118.468030,NaN,16.948,33.113,42.679,1874.39,0.0, NaN,16.541,16.492, NaN,24.079,   NaN,19.37,1012.00,71.57,19.29,337.0,328.9,2.1,2.1,230.4,218.1,1.3,1.4,54.2, NaN,NaN,282.4,NaN,1080606056,NaN,NaN,1.7,001255,   NaN,272.1,33.881800,-118.467870,0.04,NaN,NaN,16.952, NaN,NaN,NaN, NaN, NaN
20040330,002125,606075,33.881860,-118.468350,NaN,16.881,33.130,42.634,1895.61,0.0, NaN,16.510,16.459, NaN,24.107,   NaN,19.37,1011.99,71.21,19.25,336.9,331.6,2.2,2.2,231.2,222.5,1.4,1.4,54.5, NaN,NaN,295.6,NaN,1080606086,NaN,NaN,1.9,001285,   NaN,271.8,33.881820,-118.468200,0.10,NaN,NaN,16.885, NaN,NaN,NaN, NaN, NaN
20040330,002155,606105,33.881870,-118.468680,NaN,16.799,33.129,42.556,1892.95,0.0, NaN,16.433,16.373, NaN,24.126,   NaN,19.36,1012.01,70.83,19.22,337.5,333.0,2.3,2.2,232.8,224.9,1.4,1.4,54.7, NaN,NaN,273.0,NaN,1080606116,NaN,NaN,2.3,001315,   NaN,271.6,33.881830,-118.468530,0.05,NaN,NaN,16.803, NaN,NaN,NaN, NaN, NaN
20040330,002225,606135,33.881880,-118.469020,NaN,16.714,33.128,42.473,1895.16,0.0, NaN,16.308,16.240, NaN,24.145,   NaN,19.38,1011.98,70.91,19.24,339.1,333.7,2.3,2.3,235.1,226.0,1.4,1.4,55.0, NaN,NaN,259.8,NaN,1080606146,NaN,NaN,2.0,001345,   NaN,271.6,33.881840,-118.468860,0.04,NaN,NaN,16.718, NaN,NaN,NaN, NaN, NaN
20040330,002255,606164,33.881900,-118.469350,NaN,16.638,33.128,42.402,1866.45,0.0, NaN,16.202,16.137, NaN,24.162,   NaN,19.38,1011.96,70.63,19.22,339.1,333.4,2.4,2.2,235.7,225.7,1.5,1.4,55.2, NaN,NaN,266.1,NaN,1080606176,NaN,NaN,2.0,001375,   NaN,272.1,33.881860,-118.469190,0.11,NaN,NaN,16.642, NaN,NaN,NaN, NaN, NaN
20040330,002325,606195,33.881910,-118.469680,NaN,16.573,33.128,42.339,1873.29,0.0, NaN,16.116,16.049, NaN,24.177,   NaN,19.39,1011.98,70.51,19.22,338.8,333.5,2.4,2.3,235.6,227.3,1.5,1.5,55.2, NaN,NaN,268.0,NaN,1080606206,NaN,NaN,2.0,001405,   NaN,271.4,33.881870,-118.469530,0.06,NaN,NaN,16.577, NaN,NaN,NaN, NaN, NaN
20040330,002355,606225,33.881920,-118.470010,NaN,16.525,33.128,42.295,1876.70,0.0, NaN,16.049,15.986, NaN,24.188,   NaN,19.39,1011.97,70.60,19.23,339.1,333.9,2.4,2.3,236.1,227.4,1.5,1.5,55.2, NaN,NaN,267.8,NaN,1080606236,NaN,NaN,2.6,001435,   NaN,271.9,33.881880,-118.469850,0.05,NaN,NaN,16.529, NaN,NaN,NaN, NaN, NaN
20040330,002425,606255,33.881930,-118.470330,NaN,16.469,33.127,42.241,1851.28,0.0, NaN,16.025,15.968, NaN,24.201,   NaN,19.39,1011.96,70.53,19.23,338.3,333.0,2.4,2.2,235.2,225.7,1.5,1.4,NaN, NaN,NaN,288.3,NaN,1080606266,NaN,NaN,2.1,001465,   NaN,272.2,33.881890,-118.470180,0.03,NaN,NaN,16.473, NaN,NaN,NaN, NaN, NaN
20040330,002455,606285,33.881940,-118.470650,NaN,16.409,33.127,42.184,1862.74,0.0, NaN,16.020,15.965, NaN,24.215,   NaN,19.39,1011.96,70.44,19.22,336.4,330.5,2.2,2.1,231.1,221.4,1.4,1.4,NaN, NaN,NaN,262.7,NaN,1080606296,NaN,NaN,1.9,001495,   NaN,271.4,33.881900,-118.470500,0.08,NaN,NaN,16.413, NaN,NaN,NaN, NaN, NaN
20040330,002525,606315,33.881960,-118.470980,NaN,16.428,33.130,42.204,1871.90,0.0, NaN,16.026,15.974, NaN,24.212,   NaN,19.38,1011.96,70.37,19.24,334.2,327.0,2.2,2.1,226.4,214.8,1.4,1.4,NaN, NaN,NaN,264.0,NaN,1080606326,NaN,NaN,2.0,001525,   NaN,271.1,33.881910,-118.470830,0.08,NaN,NaN,16.432, NaN,NaN,NaN, NaN, NaN
20040330,002555,606345,33.881970,-118.471300,NaN,16.404,33.127,42.178,1867.52,0.0, NaN,16.049,16.001, NaN,24.215,   NaN,19.37,1011.93,70.19,19.23,332.2,324.8,2.2,2.1,223.0,212.0,1.4,1.5,NaN, NaN,NaN,281.4,NaN,1080606356,NaN,NaN,2.1,001555,   NaN,272.1,33.881920,-118.471150,0.10,NaN,NaN,16.408, NaN,NaN,NaN, NaN, NaN
20040330,002625,606375,33.881980,-118.471630,NaN,16.388,33.130,42.167,1854.48,0.0, NaN,16.107,16.067, NaN,24.221,   NaN,19.35,1011.92,70.02,19.24,331.0,323.4,2.2,2.2,221.8,212.0,1.4,1.6,NaN, NaN,NaN,282.6,NaN,1080606386,NaN,NaN,1.9,001585,   NaN,271.8,33.881930,-118.471470,0.03,NaN,NaN,16.392, NaN,NaN,NaN, NaN, NaN
20040330,002655,606405,33.881990,-118.471940,NaN,16.458,33.131,42.234,1853.09,0.0, NaN,16.249,16.227, NaN,24.206,   NaN,19.35,1011.92,70.03,19.27,330.7,321.3,2.1,2.2,221.1,210.2,1.3,1.6,NaN, NaN,NaN,248.8,NaN,1080606416,NaN,NaN,1.5,001615,   NaN,271.6,33.881950,-118.471790,0.09,NaN,NaN,16.462, NaN,NaN,NaN, NaN, NaN
20040330,002725,606435,33.882010,-118.472260,NaN,16.556,33.132,42.330,1853.74,0.0, NaN,16.489,16.483, NaN,24.185,   NaN,19.32,1011.93,69.67,19.27,329.7,319.8,2.2,2.3,220.3,209.2,1.4,1.7,NaN, NaN,NaN,285.9,NaN,1080606446,NaN,NaN,2.2,001645,   NaN,271.4,33.881970,-118.472110,0.06,NaN,NaN,16.560, NaN,NaN,NaN, NaN, NaN
20040330,002755,606465,33.882010,-118.472580,NaN,16.659,33.131,42.425,1849.77,0.0, NaN,16.744,16.745, NaN,24.160,   NaN,19.32,1011.92,69.79,19.28,328.7,318.7,2.3,2.4,220.3,208.6,1.5,1.8,NaN, NaN,NaN,278.3,NaN,1080606476,NaN,NaN,1.8,001675,   NaN,271.9,33.881970,-118.472430,0.03,NaN,NaN,16.663, NaN,NaN,NaN, NaN, NaN
20040330,002825,606494,33.882020,-118.472900,NaN,16.695,33.117,42.444,1844.54,0.0, NaN,16.973,16.977, NaN,24.141,   NaN,19.32,1011.93,70.14,19.30,324.2,314.2,2.4,2.4,215.7,203.8,1.7,1.9,NaN, NaN,NaN,257.8,NaN,1080606506,NaN,NaN,1.7,001705,   NaN,272.1,33.881980,-118.472740,0.03,NaN,NaN,16.699, NaN,NaN,NaN, NaN, NaN
20040330,002855,606525,33.882030,-118.473220,NaN,16.749,33.131,42.511,1842.81,0.0, NaN,17.170,17.172, NaN,24.139,   NaN,19.27,1011.94,70.37,19.30,318.5,310.0,2.5,2.5,209.9,199.5,1.8,2.0,NaN, NaN,NaN,246.8,NaN,1080606536,NaN,NaN,2.1,001735,   NaN,271.2,33.881990,-118.473060,-0.02,NaN,NaN,16.753, NaN,NaN,NaN, NaN, NaN
20040330,002925,606555,33.882030,-118.473540,NaN,16.797,33.129,42.555,1839.29,0.0, NaN,17.358,17.365, NaN,24.126,   NaN,19.20,1011.93,70.40,19.29,315.7,308.3,2.6,2.6,206.9,198.3,2.0,2.1,NaN, NaN,NaN,270.4,NaN,1080606566,NaN,NaN,2.0,001765,   NaN,271.1,33.882000,-118.473390,-0.05,NaN,NaN,16.801, NaN,NaN,NaN, NaN, NaN
20040330,002955,606585,33.882020,-118.473860,NaN,16.803,33.129,42.560,1835.85,0.0, NaN,17.559,17.571, NaN,24.125,   NaN,19.14,1011.90,70.41,19.26,315.4,308.0,2.6,2.6,206.3,197.8,1.9,2.1,NaN, NaN,NaN,278.7,NaN,1080606596,NaN,NaN,1.6,001795,   NaN,272.8,33.881990,-118.473710,-0.06,NaN,NaN,16.807, NaN,NaN,NaN, NaN, NaN
20040330,003025,606615,33.882050,-118.474270,NaN,16.796,33.129,42.553,1836.43,0.0, NaN,17.726,17.734, NaN,24.126,   NaN,19.08,1011.89,70.28,19.21,314.4,307.2,2.5,2.6,206.4,199.0,1.8,2.0,NaN, NaN,NaN,291.7,NaN,1080606626,NaN,NaN,2.8,001825,   NaN,295.4,33.881980,-118.474150,-0.16,NaN,NaN,16.800, NaN,NaN,NaN, NaN, NaN
20040330,003055,606645,33.882240,-118.474720,NaN,16.810,33.130,42.567,1831.05,0.0, NaN,17.811,17.809, NaN,24.124,   NaN,19.08,1011.90,70.42,19.20,308.7,302.1,2.3,2.6,203.9,201.6,1.7,2.1,NaN, NaN,NaN,300.2,NaN,1080606656,NaN,NaN,3.4,001855,   NaN,303.2,33.882160,-118.474600,-0.13,NaN,NaN,16.814, NaN,NaN,NaN, NaN, NaN
20040330,003125,606674,33.882500,-118.475230,NaN,16.848,33.130,42.603,1821.94,0.0, NaN,17.790,17.771, NaN,24.115,   NaN,19.09,1011.90,70.69,19.22,304.7,297.9,2.3,2.6,200.5,200.6,1.9,2.3,NaN, NaN,NaN,294.9,NaN,1080606686,NaN,NaN,3.7,001885,   NaN,303.4,33.882420,-118.475120,0.04,NaN,NaN,16.852, NaN,NaN,NaN, NaN, NaN
20040330,003155,606705,33.882810,-118.475780,NaN,16.903,33.131,42.657,1814.32,0.0, NaN,17.696,17.664, NaN,24.103,   NaN,19.09,1011.92,70.85,19.23,308.3,300.5,2.5,2.7,201.6,199.8,2.0,2.4,NaN, NaN,NaN,295.6,NaN,1080606716,NaN,NaN,3.9,001915,   NaN,302.9,33.882730,-118.475670,0.05,NaN,NaN,16.907, NaN,NaN,NaN, NaN, NaN
20040330,003225,606735,33.883110,-118.476370,NaN,16.992,33.131,42.741,1810.34,0.0, NaN,17.608,17.578, NaN,24.082,   NaN,19.07,1011.91,71.08,19.24,308.3,303.1,2.8,3.0,204.1,202.8,2.2,2.5,NaN, NaN,NaN,309.8,NaN,1080606746,NaN,NaN,4.2,001945,   NaN,304.1,33.883020,-118.476260,-0.01,NaN,NaN,16.996, NaN,NaN,NaN, NaN, NaN
20040330,003255,606765,33.883420,-118.476960,NaN,17.096,33.131,42.840,1807.15,0.0, NaN,17.605,17.580, NaN,24.058,   NaN,19.02,1011.91,71.17,19.16,306.3,302.9,3.0,3.2,204.4,204.5,2.4,2.7,NaN, NaN,NaN,295.8,NaN,1080606776,NaN,NaN,4.5,001975,   NaN,302.4,33.883350,-118.476850,0.03,NaN,NaN,17.100, NaN,NaN,NaN, NaN, NaN
20040330,003325,606795,33.883750,-118.477550,NaN,17.175,33.130,42.914,1804.12,0.0, NaN,17.581,17.552, NaN,24.039,   NaN,18.99,1011.88,71.28,19.08,307.4,303.2,3.2,3.3,207.9,205.1,2.5,2.7,NaN, NaN,NaN,297.0,NaN,1080606806,NaN,NaN,4.2,002005,   NaN,304.1,33.883660,-118.477450,0.03,NaN,NaN,17.179, NaN,NaN,NaN, NaN, NaN
20040330,003355,606825,33.884080,-118.478150,NaN,17.201,33.128,42.937,1794.11,0.0, NaN,17.531,17.495, NaN,24.031,   NaN,18.97,1011.87,71.63,19.05,311.1,303.6,3.1,3.2,208.7,203.6,2.3,2.7,NaN, NaN,NaN,285.6,NaN,1080606836,NaN,NaN,4.1,002035,   NaN,303.4,33.883990,-118.478050,0.06,NaN,NaN,17.205, NaN,NaN,NaN, NaN, NaN
20040330,003425,606855,33.884390,-118.478760,NaN,17.185,33.128,42.921,1788.84,0.0, NaN,17.473,17.435, NaN,24.034,   NaN,18.97,1011.86,71.94,19.01,311.8,303.9,2.8,3.0,203.8,200.0,2.1,2.5,NaN, NaN,NaN,301.9,NaN,1080606866,NaN,NaN,4.4,002065,   NaN,303.1,33.884310,-118.478670,0.09,NaN,NaN,17.189, NaN,NaN,NaN, NaN, NaN
20040330,003455,606885,33.884710,-118.479370,NaN,17.185,33.128,42.922,1784.73,0.0, NaN,17.453,17.418, NaN,24.034,   NaN,18.95,1011.86,72.02,19.00,311.9,304.3,2.8,3.0,203.5,200.2,2.1,2.5,NaN, NaN,NaN,306.0,NaN,1080606896,NaN,NaN,4.2,002095,   NaN,304.1,33.884630,-118.479280,0.12,NaN,NaN,17.189, NaN,NaN,NaN, NaN, NaN
20040330,003525,606915,33.885030,-118.479970,NaN,17.206,33.128,42.941,1783.20,0.0, NaN,17.470,17.440, NaN,24.029,   NaN,18.92,1011.88,72.21,18.97,309.7,302.3,2.9,3.1,204.5,201.3,2.2,2.6,NaN, NaN,NaN,316.7,NaN,1080606926,NaN,NaN,4.3,002125,   NaN,302.9,33.884950,-118.479880,0.09,NaN,NaN,17.210, NaN,NaN,NaN, NaN, NaN
20040330,003555,606945,33.885340,-118.480580,NaN,17.220,33.127,42.953,1779.66,0.0, NaN,17.517,17.493, NaN,24.025,   NaN,18.89,1011.87,72.32,18.94,308.7,300.9,3.1,3.3,206.4,202.1,2.4,2.8,NaN, NaN,NaN,293.2,NaN,1080606956,NaN,NaN,4.4,002155,   NaN,303.9,33.885260,-118.480480,0.00,NaN,NaN,17.224, NaN,NaN,NaN, NaN, NaN
20040330,003625,606975,33.885670,-118.481170,NaN,17.221,33.126,42.953,1765.03,0.0, NaN,17.555,17.529, NaN,24.025,   NaN,18.84,1011.88,72.42,18.88,308.5,300.5,3.2,3.4,208.8,204.1,2.5,2.9,NaN, NaN,NaN,284.5,NaN,1080606986,NaN,NaN,4.1,002185,   NaN,303.2,33.885580,-118.481070,0.11,NaN,NaN,17.225, NaN,NaN,NaN, NaN, NaN
20040330,003655,607004,33.885980,-118.481770,NaN,17.207,33.126,42.940,1734.42,0.0, NaN,17.546,17.514, NaN,24.028,   NaN,18.80,1011.86,72.67,18.86,307.9,300.7,3.3,3.4,209.4,205.0,2.6,2.9,NaN, NaN,NaN,304.1,NaN,1080607016,NaN,NaN,4.5,002215,   NaN,304.2,33.885890,-118.481680,0.05,NaN,NaN,17.211, NaN,NaN,NaN, NaN, NaN
20040330,003725,607035,33.886290,-118.482370,NaN,17.188,33.126,42.922,1697.76,0.0, NaN,17.528,17.497, NaN,24.032,   NaN,18.76,1011.86,73.02,18.82,308.3,300.9,3.3,3.4,210.4,204.9,2.6,2.9,NaN, NaN,NaN,304.6,NaN,1080607046,NaN,NaN,4.3,002245,   NaN,303.2,33.886200,-118.482270,0.01,NaN,NaN,17.192, NaN,NaN,NaN, NaN, NaN